Погода в Тридцатом

Россия / Самарская область     52°44′51″N   50°26′52″E
темп.,
°C
ветер,
м/с
пор.,
м/с
влажн.,
%
обл.,
%
осадки,
мм/ч
давл.,
гПа
погр.,
м
2 июля, сб
сб201:00+12св4993100 0.3 1009184
04:00+12в41092100 0.8 1009232
07:00+14в41086100 0.3 1010368
10:00+17всв587274 0.4 1010673
13:00+21всв7105687 0.0 10091479
16:00+23всв81155100 0.0 10081840
19:00+19вюв71272100 0.8 1009485
22:00+15в3692100 2.2 1010164
3 июля, вс
вс301:00+14св4794100 1.0 1009185
04:00+14ссв4698100 1.6 1009202
07:00+14ссв61196100 2.5 1008369
10:00+16св51190100 2.5 1009493
13:00+18ссв6977100 0.1 1009511
16:00+22ссв686251 0.3 10081281
19:00+20ссв711754 0.9 1008643
22:00+15с48905 1.1 1009135
4 июля, пн
пн401:00+14с4109198 0.0 1008192
04:00+14с51090100 0.0 1008264
07:00+15с61190100 0.0 1009456
10:00+18ссв710652 0.0 10101175
13:00+19с696481 0.1 10101661
16:00+21ссв810585 0.4 10101670
19:00+19ссв6107292 0.4 10111009
22:00+15с5128594 0.4 1012401
5 июля, вт
вт501:00+13ссв5128955 0.0 1013257
04:00+11с4109187 0.0 1015193
07:00+14ссв4978100 0.0 1016288
10:00+19ссв576082 0.0 1016993
13:00+21ссв675057 0.0 10161740
16:00+22ссв58485 0.0 10161898
19:00+20ссв366220 0.0 1017280
22:00+16ссв2274100 0.0 101714
6 июля, ср
ср601:00+14в1182100 0.0 101811
04:00+13с0083100 0.0 101911
07:00+17сз11725 0.0 1019136
10:00+22зсз22586 0.0 1019694
13:00+24зсз33495 0.0 10181573
16:00+25зсз344934 0.0 10181788
19:00+24з356341 0.0 1017151
22:00+19зсз22694 0.0 101817